ECMWFFLT1_850_thetae_132.txt.gz
Theta_e
331 330 329 329 329 329 329 331 333 333 331 330 333 335 334 333 333 332 332 332 331 330 330 331 330 330 331 332 332 332 332 332 332 332 331 329 328 327 327 326 324 322 321 321 320 321 319 315 312 309 307 304 300 301 301 299 300 301 300 301 301 300 300
334 332 331 330 330 329 329 331 333 333 332 332 334 335 334 333 333 333 332 332 331 330 331 331 331 330 331 331 331 331 332 332 332 331 331 329 328 327 327 326 324 323 322 322 322 322 322 319 314 310 308 306 302 302 302 300 300 301 301 301 301 301 300
335 334 333 332 331 330 329 330 333 333 333 333 334 335 335 334 333 332 332 331 331 331 331 332 331 331 331 331 331 331 331 330 330 329 329 328 327 327 327 326 325 324 323 323 322 322 322 320 316 312 310 308 304 302 302 301 301 301 301 302 302 302 301
336 335 334 333 332 330 329 329 332 333 334 334 334 335 335 333 333 332 331 331 331 331 332 332 332 332 332 331 330 329 329 328 328 328 328 327 327 327 327 326 326 325 324 323 322 322 321 320 318 315 313 310 304 303 303 301 301 302 302 302 302 302 301
336 335 334 333 331 330 328 329 331 334 334 334 335 335 335 334 333 332 331 331 331 332 332 333 332 332 332 330 329 327 327 327 327 328 327 327 326 326 326 325 325 324 323 322 322 322 321 320 319 317 314 310 304 303 303 301 301 302 302 302 302 301 301
337 336 335 333 331 330 328 328 331 334 335 335 335 335 334 333 333 333 331 331 331 332 332 333 332 332 331 329 327 327 327 327 327 327 327 326 326 325 325 325 324 322 321 321 320 320 320 319 319 316 314 310 305 304 303 301 302 302 302 302 301 301 301
338 337 337 334 332 330 327 327 331 334 335 335 335 335 334 334 333 333 332 330 331 332 332 332 332 331 329 328 327 326 327 327 326 326 326 325 324 323 323 322 321 320 319 316 313 312 314 316 317 317 315 310 304 304 303 301 301 302 302 301 301 301 301
338 338 337 336 333 330 327 327 331 334 335 335 335 335 334 334 333 333 332 330 330 331 332 332 331 330 328 327 326 326 325 325 325 325 325 323 320 318 317 316 316 315 312 308 305 307 309 313 316 316 315 310 305 304 304 302 301 302 301 301 301 301 301
338 338 338 336 333 330 327 327 331 335 335 335 335 335 334 334 334 333 332 330 330 331 332 331 330 329 327 326 326 325 324 323 323 323 322 319 316 314 312 311 310 309 306 304 303 304 306 310 313 314 313 311 307 305 305 303 302 301 301 301 301 301 301
339 338 338 337 333 329 327 327 331 335 336 336 336 336 335 334 334 333 331 330 330 331 331 331 330 328 327 327 325 323 322 321 321 320 318 315 313 311 310 308 306 305 304 303 302 303 304 306 308 309 309 310 309 307 306 304 302 301 301 301 301 301 301
339 338 338 337 333 329 327 328 332 336 336 336 336 335 335 335 333 331 330 330 330 331 331 331 329 328 327 326 325 322 321 319 318 317 315 313 311 308 307 305 304 304 303 302 302 302 303 303 304 304 305 307 308 307 306 306 303 302 302 301 301 302 301
339 338 339 338 334 329 327 328 332 335 336 337 336 335 335 334 332 330 329 329 330 331 331 330 329 327 327 326 324 321 320 317 316 314 312 310 308 306 305 304 304 304 302 302 301 301 301 301 301 301 301 304 306 307 306 306 304 303 302 302 302 302 302
339 339 339 338 335 330 327 329 333 335 337 336 336 335 335 332 330 329 329 329 330 331 331 330 328 327 327 326 323 321 319 317 314 312 310 308 305 303 303 304 304 303 301 301 301 300 300 300 300 300 299 301 304 306 306 305 305 304 303 303 302 302 303
339 339 339 339 337 332 329 330 333 336 337 337 336 336 335 331 329 329 329 330 330 331 330 328 327 326 327 327 324 321 319 316 313 310 307 304 302 301 302 302 302 301 300 300 300 299 299 299 299 299 299 299 301 305 306 306 305 304 304 304 303 303 303
339 339 339 339 338 334 330 331 334 336 337 337 336 336 334 332 330 330 330 330 330 330 329 327 327 327 326 327 325 321 318 315 311 308 305 302 301 301 301 301 301 300 300 300 299 299 299 299 299 298 299 298 299 302 305 306 306 305 304 304 304 302 301
339 339 339 339 339 335 332 333 335 336 337 337 336 335 334 332 330 330 330 330 330 329 328 327 326 326 326 326 325 321 316 312 309 306 302 301 300 301 300 300 300 300 300 299 299 299 299 299 298 298 298 298 298 300 303 305 305 304 303 303 301 300 299
339 339 339 339 338 335 333 334 336 336 337 337 336 335 334 332 331 331 330 330 329 328 328 326 325 325 324 324 324 320 314 310 307 303 301 300 300 300 300 300 300 300 299 299 299 299 298 298 298 298 297 298 298 298 301 302 302 301 300 300 299 298 298
338 338 339 340 338 336 335 336 336 336 336 336 336 335 334 332 331 331 330 330 329 328 327 325 325 325 324 324 323 319 312 307 304 301 300 300 300 300 299 299 299 299 299 299 299 298 298 298 298 298 297 297 297 297 298 299 299 298 298 298 298 298 297
337 337 338 339 339 337 336 336 335 335 334 335 335 334 333 332 331 331 331 330 329 327 326 325 325 325 323 322 322 317 310 305 302 300 299 299 299 299 299 299 299 299 299 298 298 298 298 298 297 297 297 297 297 298 298 298 298 298 298 298 297 297 297
337 337 337 337 338 338 337 335 334 334 334 334 335 334 332 331 331 331 331 330 328 327 326 325 325 324 321 320 319 313 306 302 300 299 299 299 299 299 299 298 298 298 298 298 298 297 297 297 297 297 297 297 297 298 298 298 298 298 298 297 297 297 297
337 337 336 336 337 337 336 335 334 334 333 334 334 333 330 330 331 331 330 329 327 326 325 325 325 322 319 317 315 308 303 301 299 299 299 299 298 298 298 298 298 298 298 297 297 298 298 297 297 297 298 297 297 298 298 298 298 298 298 297 297 297 296
336 337 337 337 337 336 336 336 335 334 334 334 334 331 329 329 329 330 330 329 327 326 326 325 325 321 317 314 310 305 301 300 299 299 299 298 298 298 298 298 298 298 297 297 298 297 297 297 298 299 299 297 297 297 297 298 298 298 297 297 297 297 296
336 337 337 337 337 336 336 337 336 335 335 335 333 330 329 328 328 329 329 328 327 327 326 325 324 320 314 311 307 302 300 299 298 298 298 298 298 298 298 297 297 297 297 298 298 297 297 298 298 299 298 297 297 297 297 297 297 297 297 297 297 296 296
336 337 337 338 337 336 336 337 336 335 335 335 332 330 329 329 328 328 329 328 327 327 326 325 324 318 312 307 304 301 299 299 298 298 298 298 298 298 298 297 297 297 298 298 298 297 298 299 298 297 297 296 296 297 296 297 297 297 297 297 296 296 296
336 336 337 337 337 336 337 337 336 334 334 333 332 330 329 330 329 329 329 328 327 327 326 325 322 316 309 305 302 300 299 298 298 298 298 298 298 298 298 298 298 298 298 298 298 298 298 298 297 296 296 296 296 296 296 296 296 296 296 296 297 296 296
336 336 336 337 337 337 337 337 336 335 334 333 332 330 330 331 329 329 328 328 328 327 325 325 321 314 308 304 301 299 299 298 298 298 298 298 298 298 298 298 298 298 298 298 299 298 298 297 296 296 296 296 296 296 296 296 296 296 296 297 297 296 296
336 336 336 336 337 338 338 336 336 336 335 334 333 331 330 331 329 328 328 327 327 327 325 324 321 313 306 303 301 299 299 298 298 298 298 298 298 298 298 298 298 298 298 298 298 298 297 297 296 296 296 296 296 296 296 296 296 296 296 297 297 297 296
335 336 335 336 337 338 338 337 336 337 335 333 332 331 331 331 329 327 327 327 327 327 325 324 320 313 306 303 300 299 299 298 298 298 298 298 298 298 298 299 298 298 298 298 298 298 297 296 296 296 296 296 296 296 296 296 296 295 296 297 298 297 296
336 336 336 336 337 337 338 337 336 336 335 332 331 331 332 331 329 327 327 327 328 327 325 324 320 313 306 302 300 299 299 299 299 299 299 298 298 298 299 299 298 297 298 298 298 298 297 296 296 296 295 295 296 296 296 296 295 295 296 298 298 297 296
336 336 336 336 337 337 338 338 335 335 335 333 332 332 332 331 329 327 328 328 327 326 325 324 320 312 305 302 300 300 299 299 299 299 299 299 298 299 299 298 297 298 299 299 298 297 296 296 296 295 295 295 295 295 295 295 295 295 296 298 298 297 295
335 335 335 336 337 337 337 337 336 334 334 333 333 333 332 330 329 329 328 327 327 326 325 324 320 312 305 302 301 300 300 300 300 299 299 299 298 298 298 298 298 298 299 298 298 296 296 296 296 295 295 295 295 295 295 295 295 295 296 297 297 296 295
336 335 335 335 337 337 334 335 336 335 333 333 333 332 331 329 329 330 329 327 327 326 325 323 319 312 305 302 302 301 301 301 300 300 299 299 299 298 298 298 298 298 298 298 297 296 295 295 295 295 294 294 295 295 295 295 295 295 295 296 296 296 295
336 336 336 336 337 336 333 334 336 335 333 333 333 332 330 328 329 330 329 327 326 325 324 322 318 312 306 303 303 302 302 302 301 301 300 300 300 299 299 298 298 298 298 297 297 296 295 295 294 294 294 294 294 294 294 295 295 295 295 295 295 295 295
336 336 337 337 336 334 333 334 335 333 332 333 333 332 330 329 330 330 328 326 326 326 324 321 317 312 306 304 304 304 303 303 303 302 302 301 301 300 300 299 298 298 298 297 296 296 295 295 294 293 293 293 293 294 294 294 295 295 295 295 295 295 295
336 336 337 337 335 335 335 335 334 333 332 333 333 333 331 330 329 328 326 326 326 325 323 321 317 313 311 311 310 307 305 305 304 304 303 303 302 302 301 300 299 298 298 297 297 296 296 295 294 294 294 294 294 295 295 295 294 294 295 295 295 295 294
336 336 336 335 335 336 336 335 334 334 333 333 333 333 331 330 329 327 326 326 326 325 323 320 317 315 315 316 313 308 306 306 306 305 305 304 304 303 303 301 300 299 298 298 297 297 298 297 297 296 297 298 298 298 298 297 295 294 294 294 294 294 294
335 334 334 334 333 334 335 334 334 333 333 333 333 332 330 329 328 327 326 326 326 325 323 320 319 318 316 314 311 308 307 307 307 306 306 306 305 304 303 302 300 299 299 298 299 299 300 300 300 300 299 299 299 299 298 297 296 295 294 294 294 294 294

ECMWFFLT1_850_thetae_135.txt.gz
Theta_e
336 335 333 331 329 327 326 325 326 327 329 330 331 331 330 331 333 333 333 333 332 332 331 331 331 331 330 331 332 332 332 332 332 331 331 331 330 329 328 327 326 326 327 326 323 320 317 315 314 313 311 307 304 302 301 301 300 300 300 300 301 301 301
337 336 334 332 331 329 328 327 326 328 330 331 332 332 330 332 334 334 333 333 332 332 331 331 331 331 331 331 331 332 332 332 332 331 331 331 331 330 329 327 327 326 326 325 322 321 321 318 316 315 314 310 305 302 301 301 300 300 301 301 301 301 301
338 337 336 334 333 331 329 327 326 327 330 332 332 332 331 332 334 335 333 333 332 332 331 331 331 332 331 331 331 331 332 332 332 332 331 331 330 330 329 328 327 326 326 325 323 322 322 321 319 317 316 311 307 305 302 302 301 300 301 301 301 302 302
338 338 337 336 334 332 330 328 327 327 329 332 333 332 332 333 335 335 334 333 332 332 331 331 331 332 332 331 331 331 332 332 331 331 331 330 330 329 329 328 327 326 326 325 324 323 323 323 321 319 317 312 308 306 303 302 302 301 301 302 302 302 302
339 338 337 337 335 333 331 329 328 327 328 331 333 333 333 333 334 335 334 333 332 331 331 331 331 332 332 332 332 331 331 331 330 330 330 329 329 329 328 327 327 326 326 326 325 324 324 324 322 319 318 314 309 306 304 302 302 301 301 302 302 302 302
338 338 338 337 336 335 333 330 328 327 327 331 333 333 334 334 334 335 334 333 332 331 331 331 331 332 332 332 332 331 331 330 329 329 329 328 328 328 327 327 327 326 326 326 325 325 324 324 322 320 319 315 310 307 304 303 302 302 302 302 302 302 302
338 338 338 338 337 336 334 332 329 327 326 330 333 334 334 334 334 335 334 333 332 331 331 331 332 332 332 332 332 332 331 329 328 328 328 328 328 328 327 326 326 326 326 325 324 324 324 323 322 322 320 315 310 307 305 303 302 303 303 302 302 302 302
339 338 338 338 337 337 336 334 331 328 326 328 332 334 334 335 335 335 334 333 333 332 331 331 332 332 332 332 332 331 329 328 327 327 327 327 327 327 326 326 326 325 325 324 324 323 321 318 318 319 319 316 311 306 304 303 303 303 303 303 303 302 302
339 339 338 338 338 337 337 336 333 330 327 327 331 334 335 335 335 335 334 333 333 332 332 331 332 332 332 332 331 329 327 326 326 326 326 326 326 326 325 325 324 323 322 322 321 318 314 310 312 315 317 316 313 308 305 304 303 303 303 303 303 303 302
339 339 339 338 338 338 338 337 335 332 329 327 331 334 335 335 335 335 334 334 333 333 332 331 332 332 332 331 330 328 326 326 325 324 324 324 325 325 323 321 320 318 316 316 314 309 306 305 309 313 314 315 314 311 309 306 305 304 304 303 303 303 303
339 339 339 339 338 338 338 338 336 333 330 328 331 335 336 335 335 335 334 334 333 333 332 331 331 332 331 331 329 327 326 325 324 322 322 323 323 322 320 317 315 313 311 309 307 304 303 304 306 309 311 312 312 312 311 309 308 306 304 304 304 303 302
339 339 339 339 339 338 338 338 337 334 330 328 331 335 336 336 336 335 334 334 333 332 331 331 331 331 331 330 329 327 326 325 323 320 319 319 319 318 317 314 311 309 307 305 304 303 302 303 304 305 307 308 309 309 309 309 308 307 305 304 304 303 302
339 339 340 339 339 338 338 338 337 334 330 328 332 335 336 336 336 335 334 333 332 331 330 330 331 331 331 330 328 327 326 324 322 319 316 315 315 314 313 310 308 306 305 304 302 302 302 302 302 303 303 304 304 305 307 307 308 307 305 304 304 303 303
339 340 340 339 339 339 338 338 338 335 330 328 331 336 337 336 336 335 334 332 330 329 329 330 330 331 330 329 327 327 326 324 322 319 315 313 312 311 308 305 304 304 303 302 301 301 301 300 300 300 300 300 300 302 305 307 307 307 305 304 304 304 303
339 340 340 340 339 339 339 338 338 336 330 328 332 336 337 336 336 335 333 331 329 329 330 330 330 330 329 328 327 326 327 325 323 319 316 312 310 308 304 302 302 302 301 301 300 300 300 299 299 299 299 299 299 300 304 306 306 306 305 305 304 304 304
339 340 340 340 340 339 339 338 339 337 331 328 333 336 337 336 336 336 333 330 329 329 330 330 330 329 328 327 326 326 326 326 323 319 315 311 308 305 302 301 301 301 301 300 300 300 299 299 299 299 299 299 298 298 302 305 307 306 305 305 304 304 303
340 340 339 340 340 339 339 338 339 337 332 329 334 337 337 336 336 335 333 331 330 330 330 330 329 329 327 326 326 326 325 325 323 318 313 309 306 303 301 300 300 300 300 300 300 299 299 299 299 298 298 298 298 298 300 304 305 304 304 304 303 302 301
340 339 339 340 340 339 339 338 339 338 332 330 334 337 337 337 336 335 334 331 330 330 330 330 329 328 327 325 325 325 324 324 322 317 311 307 304 301 300 300 300 300 300 299 299 299 299 298 298 298 298 298 298 298 299 300 300 300 302 302 300 300 299
340 339 339 340 340 340 339 338 339 338 333 331 335 337 337 336 336 335 334 331 331 330 330 329 328 327 326 325 325 325 324 324 321 316 310 305 302 301 300 300 300 299 299 299 299 298 298 298 298 298 298 298 298 298 299 300 299 299 300 299 298 298 298
341 340 339 339 340 339 339 338 339 339 334 332 336 337 336 336 335 334 334 332 331 330 330 329 328 326 325 325 325 325 324 323 320 314 307 303 301 300 300 300 299 299 299 298 298 298 298 298 298 298 298 298 298 299 300 300 298 298 298 298 298 298 297
341 340 339 339 339 339 338 338 339 338 334 333 336 337 336 335 334 334 333 332 331 331 330 329 327 326 326 326 325 323 322 321 317 310 305 301 300 300 299 299 299 299 299 298 298 298 298 298 298 297 298 297 298 299 300 298 298 298 298 298 298 297 297
341 340 339 339 338 338 337 338 339 337 335 335 337 336 335 334 333 333 333 332 331 330 330 329 327 326 326 326 324 321 320 319 314 306 302 300 299 299 299 299 299 299 298 298 298 298 297 297 298 298 297 297 299 299 298 298 298 298 298 298 298 297 297
340 339 339 338 338 336 336 337 339 337 335 336 336 335 334 333 333 332 331 331 330 330 329 328 327 326 326 325 323 319 317 316 310 304 300 299 299 299 299 299 299 298 298 298 298 298 298 298 297 297 297 298 299 298 297 297 297 298 297 297 297 297 297
339 338 338 338 337 336 334 335 338 338 336 335 335 334 333 333 333 332 330 329 330 329 329 329 327 326 326 325 322 317 314 312 306 302 300 299 299 299 298 298 298 298 298 298 298 299 298 298 297 297 298 299 299 297 297 297 297 297 297 297 297 297 296
338 338 338 337 337 336 334 334 336 337 336 335 334 334 333 333 333 332 330 329 329 329 329 328 327 326 326 325 320 315 311 308 303 301 299 299 299 298 298 298 298 298 298 298 298 299 298 298 298 298 299 298 297 297 297 297 297 297 297 297 297 297 297
337 337 337 337 337 335 333 334 336 335 335 335 335 334 334 334 333 332 330 329 329 329 329 328 327 326 325 324 319 313 309 305 302 300 299 298 298 298 298 298 298 298 298 298 298 298 298 298 298 299 298 297 297 296 296 297 297 297 296 297 296 297 297
337 337 337 337 337 334 333 336 337 334 334 336 336 335 335 335 333 331 330 329 329 329 329 328 327 327 325 324 319 312 307 304 301 299 299 298 298 298 298 298 298 298 298 298 298 298 298 298 299 298 297 297 296 296 296 296 297 297 297 296 296 296 297
337 337 337 337 336 334 333 336 337 334 334 336 336 335 334 333 332 331 329 330 329 329 328 328 327 326 325 324 319 311 305 302 300 299 299 298 298 298 298 298 298 298 298 298 298 299 299 299 298 298 297 296 296 296 296 296 296 297 296 296 296 296 297
337 337 337 337 336 333 334 337 337 334 334 337 336 334 333 332 332 330 330 330 329 328 328 327 327 326 326 324 319 311 304 302 300 299 299 298 298 298 298 298 298 298 298 298 298 298 298 298 297 297 296 296 296 296 296 296 296 296 296 296 295 296 297
337 337 337 337 335 333 334 336 336 334 334 336 336 335 334 333 332 331 330 330 329 328 327 326 326 326 326 325 320 311 304 301 300 299 299 298 298 298 298 298 298 299 299 298 297 297 297 297 297 297 296 296 296 296 296 296 296 296 296 295 295 296 297
337 337 337 336 335 334 334 335 334 334 335 337 336 335 335 335 333 332 331 330 329 328 326 326 326 326 326 325 321 312 305 301 300 299 299 298 298 298 298 298 299 299 299 298 297 297 298 298 298 297 296 296 296 296 296 296 296 296 295 295 295 296 297
338 337 337 336 335 334 334 334 333 333 336 337 335 334 335 335 334 333 332 331 329 327 326 325 326 326 325 325 321 313 305 301 300 299 299 299 299 298 298 299 299 299 298 298 297 298 298 298 298 297 296 296 296 296 295 295 295 295 295 295 295 296 297
338 337 337 336 335 334 334 333 333 333 334 336 336 335 334 334 333 333 332 331 328 326 326 326 326 326 325 324 321 313 305 302 300 299 299 299 299 299 298 299 299 299 298 298 298 299 299 298 297 296 296 296 296 295 295 295 295 295 295 295 295 296 297
338 337 337 337 335 334 334 333 333 333 333 334 336 336 333 332 333 333 333 331 328 327 327 327 327 326 324 323 319 312 305 302 300 300 300 299 299 299 298 298 298 298 298 298 298 299 299 298 297 296 296 296 295 295 295 295 295 295 295 295 295 295 296
337 337 336 335 334 334 333 333 333 334 333 333 334 334 334 333 333 334 333 331 329 328 328 328 326 324 323 322 317 311 306 303 302 301 301 300 300 299 299 299 299 298 298 298 298 298 298 298 297 296 295 295 295 294 294 294 294 294 294 294 295 295 296
335 335 335 334 332 333 334 334 334 334 335 334 333 333 334 333 333 333 333 331 330 329 329 328 326 324 323 321 317 312 306 304 305 305 303 302 301 300 300 300 300 300 299 299 298 298 297 297 297 296 295 295 294 293 293 293 293 293 294 294 294 295 295
334 335 334 333 332 332 334 334 335 335 335 334 333 333 333 333 333 333 332 331 330 329 329 328 325 323 322 320 318 315 309 307 307 307 304 303 303 302 302 302 302 301 301 300 299 298 298 297 297 296 295 294 293 293 293 293 293 294 295 295 295 295 294

ECMWFFLT1_850_thetae_138.txt.gz
Theta_e
340 340 337 333 331 328 329 333 335 334 332 330 331 329 326 326 328 332 334 334 334 334 334 333 333 332 332 332 331 331 332 332 332 332 332 331 330 330 330 330 329 329 327 326 326 325 323 321 318 315 314 312 311 310 309 307 306 306 305 305 306 307 306
339 339 339 337 336 333 331 333 334 332 332 332 332 330 327 328 330 333 334 334 334 334 334 333 332 332 332 332 330 330 331 332 332 332 331 331 330 330 330 330 329 328 326 325 325 325 324 324 321 318 315 314 313 311 309 308 307 306 306 306 306 307 307
340 340 339 339 338 336 334 334 333 333 332 333 332 330 329 331 332 333 333 334 334 334 334 333 332 331 331 332 330 330 331 332 332 331 331 331 331 330 329 329 329 327 325 324 324 324 324 323 323 321 318 315 315 313 311 309 307 306 306 307 307 306 306
341 340 340 339 338 337 336 335 335 334 333 332 332 332 332 332 332 334 334 335 335 334 334 333 332 331 331 332 331 330 330 331 332 331 331 332 331 330 329 329 328 327 326 325 324 324 323 323 323 322 320 317 316 314 313 310 307 306 307 307 307 306 306
341 341 341 340 339 338 337 336 336 335 334 333 332 332 334 333 334 335 335 336 335 334 334 333 332 332 332 332 331 330 330 331 332 331 332 332 331 331 330 329 328 327 326 325 325 324 323 323 323 322 322 319 316 314 314 311 308 307 307 307 306 306 306
341 341 341 341 340 339 338 337 337 336 334 333 331 331 333 333 334 335 336 336 336 335 334 333 333 333 332 332 331 330 330 330 331 331 331 331 330 330 331 330 329 327 327 326 325 325 324 323 323 322 321 319 316 314 312 310 309 308 307 306 306 307 306
341 341 342 342 341 340 339 338 337 336 335 332 330 331 332 333 334 335 335 336 336 335 334 333 333 333 332 332 332 331 331 331 331 331 331 331 330 330 330 330 329 328 327 326 325 325 324 323 322 322 321 318 316 315 311 310 309 308 308 307 306 306 306
341 342 343 342 341 340 339 338 337 336 334 331 329 329 331 335 336 335 335 336 335 335 334 334 334 333 332 332 332 332 332 332 332 332 332 331 331 330 330 329 328 327 326 326 325 325 324 323 322 321 322 320 317 316 312 310 309 309 308 308 306 306 305
339 342 343 342 342 341 339 339 338 336 333 330 329 328 330 335 336 336 336 336 335 335 335 334 333 332 331 332 332 332 332 332 332 331 331 330 329 329 329 328 328 327 326 325 324 324 323 322 321 321 322 320 318 317 314 311 310 309 308 308 307 306 305
337 340 342 342 342 340 339 340 338 337 336 334 332 330 329 332 335 336 336 336 335 335 335 335 333 331 331 331 332 332 332 332 331 330 330 329 328 328 328 328 328 327 326 324 324 324 323 322 322 322 321 319 318 317 315 314 312 310 309 308 307 306 305
337 338 340 342 342 339 340 341 339 338 338 337 336 333 330 331 334 336 336 336 335 335 335 335 333 332 331 331 332 332 332 331 330 328 329 328 328 328 328 328 328 327 325 323 323 323 322 322 320 318 319 318 317 316 316 315 314 312 310 309 307 307 305
339 337 339 342 341 339 341 342 339 338 339 338 337 334 330 330 333 335 336 336 335 335 334 334 334 332 331 331 332 331 331 330 328 328 328 327 327 327 327 326 326 325 323 320 319 318 317 315 311 312 315 315 315 316 316 315 314 313 312 310 308 306 305
342 340 340 341 342 340 341 342 340 337 338 339 337 333 330 331 334 335 336 336 335 335 334 334 333 332 331 331 331 331 330 329 328 327 326 325 324 323 324 323 322 321 319 315 314 312 310 307 305 308 313 313 314 314 314 314 313 313 312 310 309 306 305
343 342 341 341 341 341 341 342 341 338 338 339 338 334 330 331 334 336 336 336 335 335 334 333 332 332 331 331 331 331 330 329 327 326 325 323 320 319 319 319 318 316 313 311 311 308 307 305 303 305 309 311 312 312 312 312 312 313 313 310 308 306 304
343 343 342 341 341 341 341 341 340 339 338 338 338 335 330 331 334 336 337 336 336 335 334 333 331 331 331 331 331 331 330 328 327 326 325 322 319 317 316 316 315 312 309 308 308 307 307 305 303 305 307 309 311 311 310 308 310 313 312 307 306 305 304
344 343 342 340 340 340 341 341 340 340 339 338 338 336 331 330 334 337 337 336 335 335 334 332 330 330 330 331 331 331 329 328 326 327 326 324 320 317 314 313 311 308 305 306 305 305 305 303 303 307 308 306 308 309 306 305 310 313 309 306 304 305 304
344 343 342 341 341 340 340 341 340 340 340 338 338 336 331 329 333 336 337 336 335 334 333 331 329 329 330 330 331 330 328 327 326 327 327 325 322 317 312 310 309 305 303 303 303 302 302 300 301 305 305 302 302 303 301 302 306 308 307 306 304 304 305
343 343 342 342 341 340 340 340 340 340 339 339 338 337 332 329 332 336 337 336 335 334 333 331 329 329 330 330 330 329 328 327 326 327 326 326 323 318 312 308 306 303 301 302 302 300 300 300 300 300 300 300 300 299 298 299 301 302 305 307 305 304 305
342 343 342 342 341 340 340 340 340 340 339 338 338 337 332 329 331 336 337 336 336 334 332 331 331 330 330 330 330 328 327 326 326 326 326 325 323 317 311 307 305 302 301 301 300 300 299 299 299 299 299 300 301 299 298 299 300 302 305 307 307 304 302
342 342 342 342 341 340 340 340 339 339 339 338 338 337 333 328 331 336 337 336 336 335 333 331 330 330 330 330 329 328 326 326 325 325 325 324 321 316 310 306 304 302 301 300 300 299 300 299 299 299 298 299 299 298 298 300 302 304 305 307 307 305 302
341 342 342 341 341 340 340 339 339 339 339 339 338 337 333 328 331 336 337 336 336 335 333 331 330 330 330 329 328 327 326 326 325 325 325 323 320 314 308 305 303 301 300 300 300 299 299 299 299 299 298 299 298 298 300 301 303 305 306 306 306 305 304
340 341 341 341 340 340 339 339 339 339 339 338 338 337 334 330 332 336 337 336 336 335 333 332 331 330 329 329 328 326 326 326 325 325 325 323 319 313 307 303 302 301 300 300 299 299 299 299 299 299 298 298 298 299 301 302 303 305 305 305 305 304 304
340 340 341 340 340 340 339 339 339 338 339 338 337 337 336 332 332 336 338 336 336 335 334 332 331 330 330 329 327 326 326 326 325 324 323 322 318 311 306 303 301 300 300 300 299 299 299 299 299 298 298 298 298 298 299 300 302 304 304 304 304 304 303
340 340 340 340 339 339 339 339 339 338 338 338 337 337 337 333 333 336 337 336 336 335 334 333 331 330 330 329 326 326 326 326 325 323 321 321 317 310 304 302 300 300 300 299 299 299 299 299 299 298 298 298 298 298 299 300 302 304 304 304 304 303 302
339 340 340 339 339 339 339 338 338 338 338 338 338 337 337 335 334 336 337 336 336 334 333 333 331 330 330 328 326 326 326 326 324 321 320 319 314 307 303 301 300 300 299 299 299 299 299 299 298 298 298 298 297 299 300 299 301 303 303 304 304 303 302
340 339 339 339 338 338 338 338 338 338 337 338 338 337 337 335 334 336 337 336 335 334 333 332 331 330 329 327 326 326 326 326 323 319 318 317 311 305 301 300 300 299 299 299 299 299 298 299 299 298 298 297 297 299 299 298 299 300 301 302 303 303 302
340 339 339 339 338 338 338 338 338 338 337 337 337 337 336 335 335 337 337 335 334 334 332 331 330 330 329 327 326 326 325 325 321 317 315 313 308 303 301 300 299 299 299 299 298 298 298 299 299 298 298 298 298 299 299 297 297 297 298 299 301 302 301
339 339 338 338 338 338 338 338 338 337 336 337 338 338 337 336 336 336 336 335 334 333 332 330 329 329 328 326 326 325 325 324 319 315 312 309 305 301 300 299 299 299 299 299 298 299 299 299 299 298 298 298 299 299 297 297 297 297 297 297 298 300 301
339 338 338 338 338 338 338 338 338 337 335 335 337 338 337 336 335 335 335 334 333 333 332 330 329 328 327 326 326 325 324 322 317 312 309 307 302 300 299 299 299 299 299 298 299 299 299 299 299 298 298 299 299 298 297 297 296 296 297 297 297 298 299
339 338 338 338 339 339 338 338 338 336 335 334 335 337 337 336 335 334 334 334 334 333 332 330 329 328 327 326 325 324 323 321 316 310 307 305 301 299 298 298 298 298 298 299 299 299 299 299 299 299 299 299 299 298 297 296 296 296 296 297 297 296 297
338 337 337 338 338 339 338 338 337 337 335 333 333 335 336 336 335 334 335 335 335 333 332 331 330 328 327 326 325 324 324 322 317 310 306 303 301 299 298 298 298 298 298 299 299 299 299 299 299 299 298 298 298 298 297 296 296 296 296 296 296 296 296
336 336 337 338 339 338 338 338 337 337 334 332 333 334 334 335 335 335 336 335 334 333 332 330 329 328 327 326 326 325 325 323 318 311 305 302 300 299 299 298 298 298 298 299 299 299 299 299 299 298 298 298 298 298 297 296 296 296 296 296 296 296 296
336 336 337 338 338 338 338 337 337 337 334 333 335 335 334 334 335 336 336 334 333 333 331 330 330 328 327 327 326 325 325 323 320 313 306 302 300 300 299 298 298 298 298 298 299 299 299 299 299 298 298 298 299 299 298 297 296 296 296 296 295 296 296
336 337 338 338 338 338 338 337 337 336 334 333 334 335 333 333 334 336 336 335 333 333 331 330 330 328 327 327 326 326 325 324 322 316 307 302 301 300 299 298 298 298 298 298 299 300 299 298 298 298 298 299 299 299 298 299 297 295 296 298 298 298 300
337 338 338 338 338 338 338 337 337 336 334 332 334 334 333 333 334 335 336 336 335 333 332 331 330 328 327 327 326 326 325 323 323 318 309 303 301 301 299 298 298 298 298 298 300 300 299 298 298 298 299 299 299 297 297 299 300 297 297 299 300 301 302
337 338 338 338 338 338 337 337 337 336 334 333 333 333 332 332 333 334 335 336 335 335 333 331 330 329 327 326 326 326 325 324 323 318 310 304 301 300 299 299 299 298 298 299 300 299 298 298 298 299 299 299 298 296 295 298 301 300 299 299 300 301 302
337 337 338 338 338 338 337 337 337 336 335 333 332 331 331 331 333 334 335 335 334 334 334 332 330 328 327 327 327 326 325 324 321 315 308 303 300 300 300 300 299 299 298 299 299 298 298 298 298 299 299 298 297 296 295 296 299 301 301 300 301 301 301

ECMWFFLT1_850_thetae_141.txt.gz
Theta_e
338 341 340 338 337 334 333 331 327 329 332 333 332 333 335 332 327 328 333 333 332 332 332 333 334 334 334 335 335 335 334 334 334 334 335 334 333 332 332 331 331 330 329 328 328 328 327 326 323 320 318 316 314 314 313 312 310 310 310 309 309 310 310
337 340 341 339 336 332 330 329 328 330 331 332 333 333 334 333 328 328 332 332 331 332 333 334 335 333 333 335 335 335 334 333 333 333 334 334 333 333 332 332 332 331 329 329 329 328 328 327 325 322 320 317 316 315 314 313 312 310 310 310 309 309 310
336 339 341 340 337 334 333 332 333 334 331 332 336 335 334 333 329 329 331 332 332 333 334 336 337 335 333 334 335 334 333 332 333 333 333 333 332 332 332 332 332 331 329 329 328 327 327 327 325 324 322 319 318 317 316 316 314 311 310 310 309 309 310
337 337 340 341 339 337 337 337 336 336 334 335 336 335 334 333 329 329 332 334 334 333 334 336 336 335 334 334 334 334 333 332 333 333 332 332 331 331 332 332 331 330 329 329 328 326 326 326 325 324 323 321 320 319 318 317 315 312 310 310 310 310 310
338 336 338 341 341 339 338 338 337 336 336 336 336 335 335 332 328 329 332 334 335 335 335 334 334 334 334 333 333 333 333 332 332 332 331 331 331 331 331 331 331 330 329 329 328 327 325 325 325 324 324 323 321 321 320 318 316 313 311 310 310 311 310
339 337 336 339 340 341 339 339 338 337 337 337 336 335 335 331 328 331 333 333 334 335 336 335 334 335 333 333 334 333 332 332 332 331 331 330 330 331 331 332 331 330 329 329 328 327 326 326 325 325 325 323 322 321 319 317 316 314 311 310 310 310 310
341 338 337 337 338 340 341 339 339 339 338 337 337 336 335 334 332 334 335 334 334 335 336 335 334 334 334 334 336 333 331 332 332 331 331 331 331 331 332 332 331 330 330 330 328 327 327 327 326 325 325 324 323 321 319 317 315 314 312 311 310 310 309
343 340 339 338 337 340 341 341 339 339 338 337 337 337 337 336 335 336 336 334 335 336 336 335 333 333 333 334 335 333 332 332 331 331 331 331 331 332 331 331 331 331 330 330 329 328 327 327 326 325 325 324 323 321 320 317 314 313 312 311 310 309 309
345 344 342 339 338 339 341 342 340 339 338 338 337 336 336 335 334 336 337 335 336 336 336 335 334 334 333 333 334 333 333 333 331 331 331 331 331 332 331 331 331 331 331 330 329 328 327 327 326 325 324 323 323 322 321 318 315 313 312 311 310 309 309
346 346 344 342 340 339 341 341 341 340 339 338 337 335 334 333 332 334 337 336 336 336 335 334 334 334 334 334 335 334 334 334 333 332 331 332 332 332 332 332 332 332 331 330 329 328 327 326 326 325 323 323 323 323 321 319 318 315 312 311 311 310 308
346 346 346 344 342 341 342 341 341 340 340 339 337 334 333 332 330 331 335 337 337 336 335 334 333 334 335 335 335 335 335 335 334 333 332 332 332 333 333 332 332 332 332 330 328 327 326 326 325 324 323 323 323 322 321 319 319 317 314 312 310 310 309
346 345 346 346 344 342 342 342 341 341 340 339 337 335 334 333 331 330 332 336 337 336 336 336 335 336 336 336 336 335 334 334 334 334 333 332 332 332 331 331 331 331 330 329 327 326 326 325 324 324 324 323 322 321 320 319 319 318 316 313 311 310 309
346 346 346 346 345 344 343 343 343 342 341 341 339 338 337 335 334 332 331 334 336 336 337 337 336 336 337 336 335 334 333 333 333 333 333 332 331 330 330 330 330 329 329 328 326 326 325 325 324 324 323 321 320 319 319 318 317 317 316 314 313 311 308
346 346 345 345 345 345 344 344 343 342 342 342 342 341 338 334 335 334 331 333 337 337 337 338 337 337 337 335 335 333 332 332 332 332 331 330 330 329 329 329 328 328 328 327 326 325 325 324 323 321 318 318 317 317 318 317 316 316 316 315 314 311 309
346 345 345 345 345 344 344 343 343 342 342 343 342 341 338 334 336 336 331 332 337 338 338 338 338 337 336 335 334 333 332 332 331 331 330 329 329 328 328 328 327 327 326 326 325 324 323 321 319 317 315 315 316 316 316 316 314 315 317 316 314 312 310
346 345 344 344 344 344 344 343 342 342 343 343 342 341 339 336 337 338 332 332 337 339 339 339 338 337 336 334 333 332 331 331 331 330 329 329 329 327 327 327 327 327 326 326 324 321 319 317 316 315 314 314 315 314 315 314 312 313 316 317 315 312 310
346 345 344 344 344 344 344 343 343 343 343 343 343 342 340 338 339 338 334 332 337 338 339 338 337 336 335 333 332 332 331 331 331 330 329 329 328 327 327 326 326 326 325 324 322 318 315 315 315 314 313 313 313 313 314 314 311 311 315 317 314 310 309
344 344 345 344 344 344 344 343 343 343 343 343 343 342 341 340 340 339 334 332 336 338 338 338 337 335 335 333 332 332 331 331 331 330 329 328 327 327 326 324 323 323 322 320 317 313 312 313 311 311 312 313 312 312 313 312 310 312 315 315 312 308 308
343 344 345 345 344 344 344 343 343 343 343 343 342 342 342 341 340 339 335 332 334 338 338 338 337 336 334 333 332 331 331 331 330 330 328 328 327 325 324 322 320 320 319 317 313 310 309 309 307 307 310 311 311 312 312 311 310 312 311 311 311 309 308
343 344 345 345 344 344 344 343 343 343 343 343 342 341 341 341 339 339 337 333 333 338 338 337 337 335 334 333 332 331 331 330 329 329 327 326 326 325 324 323 320 318 317 314 311 307 307 307 304 304 307 308 309 312 312 309 308 308 307 308 311 310 308
343 344 344 344 345 344 343 343 342 343 342 342 342 341 341 340 339 339 338 335 334 337 338 337 336 335 333 333 331 331 330 330 328 327 326 325 325 325 324 323 320 318 316 313 309 307 307 306 302 302 304 305 308 311 309 305 304 306 308 309 310 310 308
343 344 343 344 345 344 343 343 342 342 342 342 341 341 340 340 340 339 338 336 335 336 337 337 336 334 333 332 331 330 330 329 328 326 324 324 325 324 324 322 319 317 315 312 309 308 306 304 301 301 302 302 305 306 304 302 305 308 310 309 310 309 308
341 343 344 344 344 344 344 343 342 342 342 341 341 341 340 340 339 338 338 337 336 335 337 337 336 334 333 331 330 330 329 329 327 325 323 324 325 324 323 321 318 316 315 312 309 307 306 303 300 301 301 301 301 300 301 304 307 309 309 309 309 308 307
339 341 343 344 344 344 344 343 342 342 342 341 341 341 340 339 339 338 338 338 336 335 337 337 336 334 333 331 330 329 329 328 326 324 323 325 325 324 323 321 317 316 315 312 309 307 304 302 300 300 301 300 300 299 301 306 309 308 309 308 307 307 307
339 338 341 343 343 342 343 342 342 342 342 341 341 341 340 339 339 338 337 337 337 336 336 336 336 334 333 331 330 329 328 327 326 323 324 326 326 325 323 320 318 317 316 313 309 306 302 301 300 300 300 300 300 299 300 305 307 307 308 307 307 307 307
339 337 340 343 343 342 342 341 341 342 342 341 341 340 340 339 338 337 337 337 337 336 336 336 335 334 334 334 332 330 328 327 325 323 324 326 326 324 322 319 317 318 317 313 308 303 301 300 300 299 299 299 299 299 299 301 303 305 307 307 307 307 306
338 337 340 342 342 341 341 340 341 342 341 341 340 340 339 339 338 337 337 336 336 336 335 335 335 335 335 335 334 332 330 327 325 323 323 324 325 322 320 319 317 316 317 313 307 302 300 300 300 299 299 299 299 299 299 299 300 302 304 305 307 307 306
337 338 341 342 341 340 340 340 340 341 341 340 340 339 339 339 338 337 336 336 336 336 335 334 334 335 336 335 334 333 332 328 325 324 322 322 323 321 318 317 316 314 314 312 306 302 300 300 299 299 299 298 299 299 298 298 299 300 302 303 304 306 306
339 340 341 341 340 340 339 339 340 340 340 340 340 339 338 338 338 337 336 336 336 335 335 333 334 336 336 335 334 333 332 328 325 324 321 320 321 320 317 316 314 311 310 309 305 301 300 300 299 299 299 298 298 298 298 298 299 299 299 300 300 301 304
338 340 341 340 340 339 339 339 339 340 340 340 339 339 338 338 337 336 336 336 335 335 335 333 334 336 336 335 333 332 331 328 325 323 321 318 319 319 316 314 313 309 307 305 303 300 299 299 299 298 298 299 298 298 298 298 299 299 298 298 297 298 299
335 338 340 340 340 339 338 338 339 339 339 339 339 339 338 337 337 336 336 335 334 334 335 334 335 336 336 334 332 331 330 327 324 323 320 317 318 317 315 313 311 308 306 304 301 300 299 299 299 298 298 298 299 298 299 299 300 299 297 297 297 297 297
335 338 339 341 340 339 337 338 339 339 339 339 339 339 338 337 336 336 336 335 334 334 335 335 336 336 335 334 332 331 330 326 324 323 319 316 317 316 313 311 309 306 306 305 301 299 299 298 298 299 299 300 301 300 301 302 300 298 297 297 296 296 296
337 338 339 339 339 337 337 338 338 338 339 339 339 338 337 337 336 336 335 334 334 334 335 336 336 336 335 334 332 331 329 327 323 321 318 317 318 316 313 311 308 305 305 305 303 300 299 298 299 300 302 303 303 303 304 304 302 299 298 297 296 296 296
339 339 339 338 337 337 338 338 338 338 339 339 338 338 337 336 336 335 335 334 333 334 336 336 336 335 334 333 332 330 329 327 323 319 319 320 320 317 313 311 309 305 303 303 303 300 299 298 298 300 302 303 304 305 306 306 304 301 298 297 296 296 296
340 340 339 338 338 338 337 337 337 338 339 339 338 337 336 336 335 334 333 333 332 334 335 335 335 334 334 334 332 330 329 328 324 320 321 322 320 315 313 312 311 307 303 301 300 299 299 299 298 299 300 302 304 305 306 307 306 304 300 299 299 297 298
340 340 339 338 338 338 337 337 338 338 339 339 338 337 336 336 335 333 332 332 331 333 335 335 335 335 335 334 332 330 329 328 326 323 322 321 318 315 313 313 312 310 305 301 299 299 298 298 299 298 299 300 301 302 303 304 306 305 303 302 303 303 303
340 339 338 338 338 337 337 338 338 338 339 338 337 337 336 336 335 333 332 331 330 331 334 335 335 335 335 334 332 330 329 328 327 326 323 319 316 314 313 314 314 311 306 302 302 302 300 298 298 298 298 299 299 300 300 301 304 306 305 303 303 304 304

ECMWFFLT1_850_thetae_144.txt.gz
Theta_e
335 334 335 337 337 336 336 336 331 331 334 334 334 335 334 333 331 324 320 324 328 330 334 335 335 335 336 335 334 335 335 334 333 333 333 333 333 332 331 331 331 330 330 328 327 327 326 325 322 320 319 317 316 315 313 313 312 311 311 310 310 310 310
339 337 336 337 336 336 335 335 332 330 334 336 334 334 334 334 333 328 320 321 326 331 334 335 335 335 335 335 334 334 334 333 332 332 333 333 333 332 332 331 330 330 330 329 328 329 329 328 326 323 322 319 316 316 316 314 313 311 311 311 311 310 310
341 339 337 337 335 336 335 333 333 332 333 335 335 333 332 333 335 331 324 321 325 331 334 335 334 334 334 335 334 333 333 334 334 333 333 335 334 333 332 331 331 331 330 330 329 329 328 328 328 326 324 321 319 319 319 317 315 313 311 311 311 311 310
340 338 336 337 336 336 335 332 333 334 333 332 333 333 330 331 333 332 326 324 328 332 335 335 334 333 334 335 334 333 333 334 335 335 334 334 333 333 333 332 331 331 330 331 330 329 328 327 327 325 324 323 322 321 320 319 318 316 313 311 311 311 310
338 337 335 335 335 335 334 332 331 332 331 329 329 330 330 329 328 329 328 327 329 333 335 335 334 333 334 334 333 333 333 333 335 335 335 334 333 332 333 331 331 331 331 331 330 329 328 327 326 326 325 324 323 322 320 319 319 317 315 312 311 311 310
339 338 337 335 335 335 333 332 330 331 329 328 327 327 327 326 325 329 330 328 330 332 335 336 335 333 333 334 333 333 333 333 334 335 334 334 333 333 332 332 331 331 331 331 330 329 328 326 325 325 325 325 324 322 320 320 319 318 316 312 311 311 310
340 339 339 337 336 335 334 332 330 330 330 330 329 328 326 324 325 330 331 329 329 332 334 336 335 334 334 334 333 333 333 332 333 333 334 334 333 333 332 332 332 331 331 330 330 329 328 327 325 325 325 325 325 323 320 320 320 318 316 314 312 311 311
340 340 340 339 337 336 335 334 332 331 331 331 331 331 329 327 327 329 330 330 331 333 334 335 335 334 334 334 333 332 332 332 332 332 332 332 332 332 332 331 331 331 331 330 330 329 328 327 326 326 326 324 325 324 321 319 318 317 316 314 313 311 311
342 341 341 340 339 339 337 336 335 333 332 332 332 332 332 330 327 328 329 330 331 333 335 335 335 334 335 335 333 332 331 331 331 331 331 331 332 332 331 331 331 332 331 331 330 330 329 327 327 327 326 324 325 325 322 320 319 316 315 313 312 311 311
344 343 341 342 341 341 339 337 337 335 334 333 333 333 332 331 328 328 328 328 332 334 336 336 335 334 335 335 333 332 331 330 330 331 331 332 332 332 331 331 331 331 331 331 331 331 329 328 327 327 326 324 324 325 324 323 322 319 316 314 312 312 311
345 344 343 342 343 342 341 340 338 337 336 334 334 334 333 332 331 329 328 328 331 334 336 336 335 335 335 334 333 333 332 332 332 331 331 332 332 332 332 332 332 331 331 331 331 331 330 328 327 327 326 325 325 325 324 323 323 322 319 316 313 311 311
343 345 345 343 343 342 342 341 340 338 338 336 335 335 334 333 333 331 329 330 331 334 336 336 336 335 335 334 334 334 333 333 333 332 332 333 333 332 332 332 332 331 331 331 331 331 330 328 327 327 326 324 324 325 324 323 323 322 320 317 313 312 311
341 342 345 344 343 343 343 342 341 340 339 338 336 336 336 335 333 331 329 330 331 332 334 336 337 336 335 334 334 334 334 334 334 334 334 334 333 333 332 332 332 332 332 332 332 331 330 329 328 326 325 325 325 324 323 323 323 321 319 317 314 312 311
341 340 342 344 344 344 344 343 342 341 340 339 338 338 337 336 335 332 329 329 330 329 330 334 336 336 335 334 334 334 335 335 335 335 334 334 334 333 333 333 333 333 333 332 332 331 330 328 327 325 325 325 325 324 323 323 322 320 319 317 315 312 311
338 337 337 341 344 344 344 344 344 342 341 340 340 339 338 338 336 334 332 331 331 330 329 332 335 336 335 335 334 335 336 336 335 335 334 334 334 333 333 332 332 332 331 331 331 330 329 327 325 325 324 325 325 323 322 321 321 319 318 317 316 313 312
333 329 330 338 343 344 344 345 344 344 343 342 341 340 340 339 337 336 336 335 332 330 329 330 334 336 336 336 335 335 336 336 335 334 333 333 332 332 331 331 330 330 329 329 328 327 327 326 325 325 325 325 324 321 319 319 319 318 317 317 317 315 314
330 326 329 335 341 344 345 345 345 344 344 343 342 341 340 340 339 338 338 338 335 332 330 331 333 336 336 336 336 336 336 336 334 333 332 332 331 331 331 330 329 328 328 329 327 326 327 326 325 325 324 322 319 317 316 317 317 317 316 316 316 317 316
329 328 330 335 342 345 345 346 345 344 344 344 343 342 342 341 341 340 339 339 337 335 334 332 334 336 337 337 337 337 337 335 333 332 332 331 330 330 330 330 329 328 328 328 328 327 326 326 325 324 322 319 316 314 316 316 316 315 314 314 316 317 316
332 332 331 337 343 345 346 346 346 344 344 344 343 342 342 342 342 341 340 340 339 338 337 335 335 336 338 338 338 337 336 335 333 332 331 330 330 330 329 330 329 328 327 327 327 327 326 325 324 321 318 317 315 314 314 314 315 315 313 313 316 317 314
332 332 332 337 343 345 345 346 346 345 344 343 343 343 343 342 342 341 341 340 339 339 338 338 337 337 338 338 338 337 335 334 333 332 331 331 330 330 329 329 328 328 327 326 326 326 326 324 322 319 317 316 314 314 314 313 314 314 311 312 315 315 312
330 331 334 338 342 344 345 346 346 345 344 343 343 343 344 343 342 342 341 340 339 339 339 339 339 338 338 338 338 337 336 334 333 332 331 330 330 329 329 329 328 327 326 326 326 326 324 322 321 318 316 314 313 313 313 312 312 312 310 311 312 312 311
332 333 336 339 342 344 344 345 346 345 345 343 343 344 344 344 343 342 341 340 339 339 339 339 339 338 338 337 337 336 335 334 333 332 331 330 330 329 328 328 328 327 326 325 325 325 323 321 320 317 315 313 311 312 312 311 311 311 310 309 309 309 311
335 336 337 339 341 343 344 345 345 345 345 344 343 343 344 344 343 342 341 340 339 339 338 338 339 338 337 337 336 335 334 333 332 331 331 330 329 328 328 327 327 326 325 324 324 323 322 320 318 316 313 312 310 309 309 310 310 309 308 306 306 308 311
339 337 337 338 340 342 343 344 345 345 345 344 343 343 344 344 344 342 341 340 339 339 338 338 338 338 337 336 336 335 334 333 332 331 330 330 329 327 327 326 326 324 323 323 323 323 321 319 317 314 312 310 309 308 307 307 308 307 305 306 307 309 311
341 339 338 338 338 339 341 344 345 345 345 344 343 342 343 344 343 343 342 341 340 339 338 338 338 338 338 337 336 335 333 333 332 331 330 330 328 327 326 325 324 323 322 322 322 322 321 319 317 314 312 309 307 306 305 305 306 304 303 307 309 309 310
343 341 340 338 337 338 341 343 344 344 344 343 343 342 342 343 344 343 342 341 340 339 338 338 338 338 338 337 336 335 334 333 332 330 330 329 328 326 325 324 322 321 322 322 321 321 320 319 316 314 311 308 306 305 304 304 304 303 304 307 310 310 309
345 344 342 339 338 339 340 343 343 343 344 343 342 342 342 342 343 343 342 341 340 339 338 338 338 338 338 337 336 335 333 333 332 330 329 329 327 326 324 323 322 321 321 322 322 321 320 319 317 314 311 307 305 303 303 303 302 302 305 307 308 309 308
344 344 343 341 341 340 340 343 344 344 344 343 342 342 342 341 342 342 342 341 341 340 339 337 337 338 337 337 336 335 334 333 332 330 329 329 327 326 325 323 321 321 321 322 322 322 320 319 317 314 310 306 303 302 302 302 300 302 304 306 306 307 307
335 340 343 343 341 341 341 342 342 343 343 343 343 342 342 342 342 342 342 341 340 340 339 338 337 337 337 337 337 335 334 333 332 330 330 329 328 326 325 323 321 321 321 322 322 321 320 319 316 313 309 305 302 300 301 300 300 300 302 303 304 305 306
330 331 340 344 343 341 341 341 341 342 343 342 342 342 342 341 341 341 342 340 340 339 338 338 337 337 337 337 336 336 334 333 331 331 330 330 327 326 325 323 321 320 319 320 320 320 319 317 315 310 306 302 300 299 299 299 299 299 299 300 302 304 305
335 334 339 344 344 341 340 339 340 341 340 340 340 341 341 341 341 341 341 340 339 339 339 337 337 337 337 337 336 336 335 333 331 330 330 329 327 326 325 323 322 320 319 319 319 319 317 315 312 307 303 301 299 299 298 298 298 298 298 299 300 301 303
338 340 343 344 343 341 339 338 339 339 339 338 339 340 341 341 341 341 341 340 340 339 338 338 337 337 337 336 336 336 335 334 332 331 331 330 328 326 324 323 321 319 318 318 318 317 316 313 309 304 301 300 299 298 299 299 298 298 298 298 298 299 301
339 342 344 343 343 340 338 337 337 337 337 337 338 339 340 341 341 341 341 340 340 339 339 338 337 337 336 336 336 335 334 334 333 332 332 331 329 327 324 323 322 319 317 317 317 316 314 311 306 303 300 300 299 299 300 300 299 299 299 298 298 299 299
337 342 344 344 342 339 337 336 336 336 336 337 338 339 339 340 341 341 340 340 340 339 339 338 337 336 336 335 334 334 334 335 334 333 332 331 330 328 324 322 321 319 316 317 316 315 313 310 305 302 300 300 299 299 301 300 300 300 300 299 299 299 299
334 338 341 342 342 339 338 337 337 337 337 337 338 339 339 340 340 340 340 340 340 339 338 338 337 336 335 334 334 333 334 335 334 333 332 331 330 328 325 323 323 320 318 319 317 314 312 310 306 302 300 300 299 300 301 301 303 304 303 302 301 300 299
335 339 341 343 342 340 339 338 338 338 338 339 339 339 339 339 339 340 340 339 339 338 338 337 337 336 335 333 333 333 334 335 334 333 332 332 330 329 326 325 324 321 320 320 319 315 312 310 306 303 301 299 299 300 301 304 307 308 306 305 303 301 300
336 340 342 342 341 340 339 339 339 339 339 339 339 339 339 339 340 339 339 339 338 338 337 337 336 335 334 333 333 334 334 334 334 333 332 332 331 330 328 326 323 322 321 321 320 318 314 310 307 304 301 299 299 299 301 305 308 308 307 307 305 303 301